Mormon Lake Weather Center

Moon Phase Calendar



Mormon Lake Water Level
Online Cameras

 


      

Current Conditions in Mountainaire
11/29/2022 7:52:38 PM

29°F
Feels Like 29
Clear
Humidity
74%
Pressure
30.09"
Wind
2.8 mph (SSW)
Dew Point
23°F
UV Index
0/10 (Low)
Visibility
6 mi

Hourly Forecast

Date & Time Tue, Nov 29
7:00 PM
Tue, Nov 29
8:00 PM
Tue, Nov 29
9:00 PM
Tue, Nov 29
10:00 PM
Tue, Nov 29
11:00 PM
Wed, Nov 30
12:00 AM
Wed, Nov 30
1:00 AM
Wed, Nov 30
2:00 AM
Wed, Nov 30
3:00 AM
Wed, Nov 30
4:00 AM
Wed, Nov 30
5:00 AM
Wed, Nov 30
6:00 AM
Wed, Nov 30
7:00 AM
Wed, Nov 30
8:00 AM
Wed, Nov 30
9:00 AM
Wed, Nov 30
10:00 AM
Wed, Nov 30
11:00 AM
Wed, Nov 30
12:00 PM
Wed, Nov 30
1:00 PM
Wed, Nov 30
2:00 PM
Wed, Nov 30
3:00 PM
Wed, Nov 30
4:00 PM
Wed, Nov 30
5:00 PM
Wed, Nov 30
6:00 PM
Wed, Nov 30
7:00 PM
Wed, Nov 30
8:00 PM
Wed, Nov 30
9:00 PM
Wed, Nov 30
10:00 PM
Wed, Nov 30
11:00 PM
Thu, Dec 1
12:00 AM
Thu, Dec 1
1:00 AM
Thu, Dec 1
2:00 AM
Thu, Dec 1
3:00 AM
Thu, Dec 1
4:00 AM
Thu, Dec 1
5:00 AM
Thu, Dec 1
6:00 AM
Thu, Dec 1
7:00 AM
Thu, Dec 1
8:00 AM
Thu, Dec 1
9:00 AM
Thu, Dec 1
10:00 AM
Thu, Dec 1
11:00 AM
Thu, Dec 1
12:00 PM
Thu, Dec 1
1:00 PM
Thu, Dec 1
2:00 PM
Thu, Dec 1
3:00 PM
Thu, Dec 1
4:00 PM
Thu, Dec 1
5:00 PM
Thu, Dec 1
6:00 PM
Condition
Clear

Clear

Clear

Clear

Clear

Clear

Clear

Clear

Clear

Clear

Clear

Clear

Clear

Clear

Clouds

Clouds

Clouds

Clouds

Clouds

Clouds

Clouds

Clouds

Clouds

Clouds

Clouds

Clear

Clear

Clear

Clear

Clear

Clear

Clear

Clear

Clear

Clear

Clear

Clear

Clear

Clear

Clear

Clear

Clouds

Clouds

Clouds

Clouds

Clouds

Clouds

Clouds
Temperature 29°F29°F29°F29°F29°F28°F28°F28°F28°F27°F27°F27°F28°F31°F38°F43°F45°F46°F46°F46°F45°F43°F38°F33°F33°F32°F32°F32°F32°F32°F31°F31°F31°F31°F31°F31°F31°F33°F39°F42°F45°F45°F46°F46°F45°F43°F39°F38°F
Feels Like 25°F29°F29°F29°F29°F28°F28°F28°F28°F27°F27°F27°F24°F28°F34°F37°F39°F40°F39°F38°F37°F35°F31°F26°F26°F25°F25°F25°F25°F24°F24°F24°F23°F23°F22°F22°F22°F25°F30°F33°F36°F37°F37°F37°F36°F33°F28°F27°F
Cloudiness 0%0%0%0%0%0%0%0%0%1%1%0%0%7%28%41%51%100%100%100%98%95%96%23%14%10%8%6%5%0%0%0%0%0%0%0%0%0%0%0%1%100%100%75%81%82%75%63%
Visibility 6 mi6 mi6 mi6 mi6 mi6 mi6 mi6 mi6 mi6 mi6 mi6 mi6 mi6 mi6 mi6 mi6 mi6 mi6 mi6 mi6 mi6 mi6 mi6 mi6 mi6 mi6 mi6 mi6 mi6 mi6 mi6 mi6 mi6 mi6 mi6 mi6 mi6 mi6 mi6 mi6 mi6 mi6 mi6 mi6 mi6 mi6 mi6 mi
Precipitation 0%0%0%0%0%0%0%0%0%0%0%0%0%0%0%0%0%0%0%0%0%0%0%0%0%0%0%0%0%0%0%0%0%0%0%0%0%0%0%0%0%0%0%0%0%0%0%0%
Humidity 72%74%71%68%63%58%55%57%58%60%63%64%61%55%47%40%35%34%34%35%36%41%51%63%68%72%74%75%77%78%80%81%82%82%83%82%83%79%63%51%43%40%40%37%40%46%55%60%
Dew Point 22°F23°F22°F21°F19°F17°F14°F15°F15°F16°F17°F17°F16°F17°F20°F20°F20°F20°F20°F20°F20°F21°F22°F23°F24°F25°F25°F25°F26°F26°F26°F27°F27°F27°F27°F27°F27°F27°F28°F26°F24°F23°F23°F22°F23°F24°F25°F26°F
Pressure 30.09"30.09"30.09"30.09"30.12"30.12"30.12"30.12"30.12"30.12"30.12"30.12"30.12"30.12"30.06"30.03"30"29.97"29.97"29.94"29.94"29.94"29.97"30"30.03"30.06"30.06"30.06"30.06"30.06"30.03"30.03"30.03"30.03"30.03"30.03"30.03"30.03"29.97"29.97"29.97"29.94"29.91"29.88"29.85"29.88"29.88"29.91"
Wind Speed 3.5 mph2.8 mph2.3 mph2.2 mph2.3 mph2.6 mph2.5 mph1.7 mph1.9 mph2.1 mph2.2 mph2.4 mph3.4 mph3.3 mph5.3 mph9.5 mph11.8 mph14.7 mph16.5 mph16.6 mph16.6 mph14.3 mph11.3 mph8.6 mph8.4 mph7.8 mph8 mph8 mph8 mph8 mph8.3 mph8.4 mph8.8 mph8.9 mph9.7 mph10.2 mph10.1 mph10.5 mph15.9 mph21 mph22.7 mph24.1 mph25.1 mph26.4 mph25.7 mph25.2 mph24 mph22.8 mph
Wind
Direction
211°
SSW
192°
SSW
157°
SSE
135°
SE
132°
SE
148°
SSE
155°
SSE
131°
SE
128°
SE
140°
SE
148°
SSE
156°
SSE
167°
SSE
180°
S
206°
SSW
217°
SW
219°
SW
221°
SW
222°
SW
223°
SW
223°
SW
227°
SW
232°
SW
224°
SW
220°
SW
221°
SW
222°
SW
221°
SW
219°
SW
219°
SW
217°
SW
217°
SW
218°
SW
220°
SW
220°
SW
219°
SW
217°
SW
215°
SW
217°
SW
216°
SW
219°
SW
220°
SW
223°
SW
221°
SW
219°
SW
220°
SW
221°
SW
222°
SW

Daily Forecast

Date High Low Precip. Humidity
Today
Nov 29

Clear
43 °F
26 °F
0%
42%
Wednesday
Nov 30

Clouds
46 °F
27 °F
0%
34%
Thursday
Dec 1

Clear
46 °F
31 °F
0%
43%
Friday
Dec 2

Rain
41 °F
32 °F
28%
73%
Saturday
Dec 3

Clouds
50 °F
32 °F
0%
18%
Sunday
Dec 4

Clouds
48 °F
35 °F
0%
38%
Monday
Dec 5

Snow
41 °F
25 °F
27%
32%
Tuesday
Dec 6

Clear
43 °F
24 °F
0%
24%
Wednesday
Dec 7

Clear
44 °F
26 °F
0%
23%
Thursday
Dec 8

Clear
46 °F
27 °F
0%
18%
Friday
Dec 9

Clear
49 °F
28 °F
0%
14%
Saturday
Dec 10

Clouds
46 °F
31 °F
0%
17%
Sunday
Dec 11

Clear
49 °F
30 °F
0%
21%
Monday
Dec 12

Clear
55 °F
29 °F
0%
22%
Tuesday
Dec 13

Clouds
50 °F
34 °F
0%
17%
Wednesday
Dec 14

Snow
40 °F
29 °F
28%
41%

Temperature 8-14 Day Outlook



Precipitation 8-14 Day Outlook




Quick Links
Mormon Lake News
Mormon Lake Photos
Mormon Lake Videos




About Us
Contact Us
Site Map
Search Site
Advertise With Us
   
Mormon.LakesOnline.com
THE MORMON LAKE WEBSITE

Copyright 2022, Lakes Online
Privacy    |    Legal